Time,TemperatureF,DewpointF,PressureIn,WindDirection,WindDirectionDegrees,WindSpeedMPH,WindSpeedGustMPH,Humidity,HourlyPrecipIn,Conditions,Clouds,dailyrainin,SoftwareType,DateUTC
2013-02-06 00:04:00,45.4,41.4,29.96,ESE,113,3.6,10.7,86,0.00,,,0.00,WUHU216HW,2013-02-06 08:04:00,
2013-02-06 00:09:00,45.4,41.4,29.97,SSE,158,5.1,6.7,86,0.00,,,0.00,WUHU216HW,2013-02-06 08:09:00,
2013-02-06 00:14:00,45.4,41.4,29.97,South,180,3.1,11.0,86,0.00,,,0.00,WUHU216HW,2013-02-06 08:14:00,
2013-02-06 00:19:00,45.5,41.3,29.97,SE,135,2.5,13.9,85,0.00,,,0.00,WUHU216HW,2013-02-06 08:19:00,
2013-02-06 00:24:00,45.5,41.3,29.97,East,90,8.1,13.9,85,0.00,,,0.00,WUHU216HW,2013-02-06 08:24:00,
2013-02-06 00:29:00,45.5,41.3,29.97,ENE,68,3.6,11.2,85,0.00,,,0.00,WUHU216HW,2013-02-06 08:29:00,
2013-02-06 00:34:00,45.4,41.1,29.97,SE,135,6.7,9.8,85,0.00,,,0.00,WUHU216HW,2013-02-06 08:34:00,
2013-02-06 00:39:00,45.4,41.1,29.98,South,180,4.7,9.2,85,0.00,,,0.00,WUHU216HW,2013-02-06 08:39:00,
2013-02-06 00:44:00,45.4,41.1,29.98,SSE,158,8.3,9.8,85,0.00,,,0.00,WUHU216HW,2013-02-06 08:44:00,
2013-02-06 00:49:00,45.4,41.1,29.98,SE,135,3.6,12.5,85,0.00,,,0.00,WUHU216HW,2013-02-06 08:49:00,
2013-02-06 00:54:00,45.4,41.1,29.98,SSE,158,3.4,12.5,85,0.00,,,0.00,WUHU216HW,2013-02-06 08:54:00,
2013-02-06 00:59:00,45.4,41.1,29.98,SE,135,6.3,8.9,85,0.00,,,0.00,WUHU216HW,2013-02-06 08:59:00,
2013-02-06 01:04:00,45.5,41.3,29.98,SE,135,3.8,7.4,85,0.00,,,0.00,WUHU216HW,2013-02-06 09:04:00,
2013-02-06 01:09:00,45.4,41.1,29.98,South,180,1.8,8.5,85,0.00,,,0.00,WUHU216HW,2013-02-06 09:09:00,
2013-02-06 01:14:00,45.2,41.0,29.99,South,180,10.5,10.5,85,0.00,,,0.00,WUHU216HW,2013-02-06 09:14:00,
2013-02-06 01:19:00,45.4,41.1,29.99,ESE,113,2.7,10.5,85,0.00,,,0.00,WUHU216HW,2013-02-06 09:19:00,
2013-02-06 01:24:00,45.4,41.1,29.99,SSE,158,2.2,10.5,85,0.00,,,0.00,WUHU216HW,2013-02-06 09:24:00,
2013-02-06 01:29:00,45.4,41.1,29.99,SE,135,1.8,4.3,85,0.00,,,0.00,WUHU216HW,2013-02-06 09:29:00,
2013-02-06 01:34:00,45.4,41.1,29.99,South,180,2.7,4.3,85,0.00,,,0.00,WUHU216HW,2013-02-06 09:34:00,
2013-02-06 01:39:00,45.2,41.0,29.99,SE,135,2.5,2.9,85,0.00,,,0.00,WUHU216HW,2013-02-06 09:39:00,
2013-02-06 01:44:00,45.2,41.0,29.99,ESE,113,3.8,6.3,85,0.00,,,0.00,WUHU216HW,2013-02-06 09:44:00,
2013-02-06 01:49:00,45.2,41.0,29.99,East,90,2.9,6.3,85,0.00,,,0.00,WUHU216HW,2013-02-06 09:49:00,
2013-02-06 01:54:00,45.2,41.2,29.99,SE,135,2.5,3.8,86,0.00,,,0.00,WUHU216HW,2013-02-06 09:54:00,
2013-02-06 01:59:00,45.2,41.0,29.99,SE,135,2.5,3.4,85,0.00,,,0.00,WUHU216HW,2013-02-06 09:59:00,
2013-02-06 02:04:00,45.2,41.0,29.99,ENE,68,2.0,4.7,85,0.00,,,0.00,WUHU216HW,2013-02-06 10:04:00,
2013-02-06 02:09:00,45.0,40.8,29.99,SSE,158,2.9,4.7,85,0.00,,,0.00,WUHU216HW,2013-02-06 10:09:00,
2013-02-06 02:14:00,45.0,40.8,29.99,SE,135,4.0,6.3,85,0.00,,,0.00,WUHU216HW,2013-02-06 10:14:00,
2013-02-06 02:19:00,44.8,40.9,29.99,SE,135,4.5,6.3,86,0.00,,,0.00,WUHU216HW,2013-02-06 10:19:00,
2013-02-06 02:24:00,44.8,40.9,29.99,SE,135,2.0,4.5,86,0.00,,,0.00,WUHU216HW,2013-02-06 10:24:00,
2013-02-06 02:29:00,44.6,41.1,30.00,SSE,158,3.8,4.5,87,0.00,,,0.00,WUHU216HW,2013-02-06 10:29:00,
2013-02-06 02:34:00,44.8,41.2,30.00,ESE,113,2.9,4.7,87,0.00,,,0.00,WUHU216HW,2013-02-06 10:34:00,
2013-02-06 02:39:00,44.8,41.2,30.00,ENE,68,3.4,4.7,87,0.00,,,0.00,WUHU216HW,2013-02-06 10:39:00,
2013-02-06 02:44:00,44.8,41.2,30.00,SE,135,3.8,7.2,87,0.00,,,0.00,WUHU216HW,2013-02-06 10:44:00,
2013-02-06 02:49:00,44.8,41.2,30.00,SE,135,4.3,7.2,87,0.00,,,0.00,WUHU216HW,2013-02-06 10:49:00,
2013-02-06 02:54:00,44.8,41.2,30.01,ESE,113,2.2,5.4,87,0.00,,,0.00,WUHU216HW,2013-02-06 10:54:00,
2013-02-06 02:59:00,44.8,41.2,30.00,SE,135,3.4,5.1,87,0.00,,,0.00,WUHU216HW,2013-02-06 10:59:00,
2013-02-06 03:04:00,44.8,41.5,30.00,SE,135,0.9,6.9,88,0.00,,,0.00,WUHU216HW,2013-02-06 11:04:00,
2013-02-06 03:09:00,44.8,41.2,30.01,East,90,5.4,6.9,87,0.00,,,0.00,WUHU216HW,2013-02-06 11:09:00,
2013-02-06 03:14:00,45.0,41.4,30.01,ESE,113,2.7,12.3,87,0.00,,,0.00,WUHU216HW,2013-02-06 11:14:00,
2013-02-06 03:19:00,45.0,41.4,30.01,ENE,68,3.4,12.3,87,0.00,,,0.00,WUHU216HW,2013-02-06 11:19:00,
2013-02-06 03:24:00,45.0,41.4,30.01,SSE,158,2.0,3.8,87,0.00,,,0.00,WUHU216HW,2013-02-06 11:24:00,
2013-02-06 03:29:00,45.0,41.0,30.01,SSE,158,5.4,5.4,86,0.00,,,0.00,WUHU216HW,2013-02-06 11:29:00,
2013-02-06 03:34:00,45.0,41.4,30.01,ESE,113,0.9,5.4,87,0.00,,,0.00,WUHU216HW,2013-02-06 11:34:00,
2013-02-06 03:39:00,45.0,41.4,30.01,SSE,158,2.7,5.4,87,0.00,,,0.00,WUHU216HW,2013-02-06 11:39:00,
2013-02-06 03:45:00,44.8,41.2,30.02,East,90,2.0,4.9,87,0.00,,,0.00,WUHU216HW,2013-02-06 11:45:00,
2013-02-06 03:50:00,44.8,41.2,30.02,SE,135,2.0,4.9,87,0.00,,,0.00,WUHU216HW,2013-02-06 11:50:00,
2013-02-06 03:55:00,44.8,41.5,30.02,SE,135,2.0,4.0,88,0.00,,,0.00,WUHU216HW,2013-02-06 11:55:00,
2013-02-06 04:00:00,44.6,41.3,30.02,South,180,5.6,5.6,88,0.00,,,0.00,WUHU216HW,2013-02-06 12:00:00,
2013-02-06 04:05:00,44.5,41.1,30.02,SE,135,2.5,5.6,88,0.00,,,0.00,WUHU216HW,2013-02-06 12:05:00,
2013-02-06 04:10:00,44.3,41.0,30.02,ESE,113,2.9,5.6,88,0.00,,,0.00,WUHU216HW,2013-02-06 12:10:00,
2013-02-06 04:15:00,44.3,41.3,30.02,SSW,203,4.7,5.6,89,0.00,,,0.00,WUHU216HW,2013-02-06 12:15:00,
2013-02-06 04:20:00,44.3,41.0,30.02,East,90,4.0,4.7,88,0.00,,,0.00,WUHU216HW,2013-02-06 12:20:00,
2013-02-06 04:25:00,44.3,41.0,30.02,SE,135,3.4,5.1,88,0.00,,,0.00,WUHU216HW,2013-02-06 12:25:00,
2013-02-06 04:30:00,44.3,41.0,30.02,SSW,203,2.5,5.1,88,0.00,,,0.00,WUHU216HW,2013-02-06 12:30:00,
2013-02-06 04:35:00,44.3,41.3,30.03,SE,135,3.4,5.4,89,0.00,,,0.00,WUHU216HW,2013-02-06 12:35:00,
2013-02-06 04:40:00,44.3,41.0,30.03,ENE,68,2.5,5.4,88,0.00,,,0.00,WUHU216HW,2013-02-06 12:40:00,
2013-02-06 04:45:00,44.3,41.0,30.03,South,180,5.4,5.4,88,0.00,,,0.00,WUHU216HW,2013-02-06 12:45:00,
2013-02-06 04:50:00,44.3,41.0,30.04,SE,135,5.1,5.4,88,0.00,,,0.00,WUHU216HW,2013-02-06 12:50:00,
2013-02-06 04:55:00,44.3,41.0,30.03,SE,135,2.5,5.4,88,0.00,,,0.00,WUHU216HW,2013-02-06 12:55:00,
2013-02-06 05:00:00,44.5,41.1,30.03,East,90,1.8,6.7,88,0.00,,,0.00,WUHU216HW,2013-02-06 13:00:00,
2013-02-06 05:05:00,44.3,41.0,30.03,East,90,1.6,6.7,88,0.00,,,0.00,WUHU216HW,2013-02-06 13:05:00,
2013-02-06 05:10:00,44.5,41.1,30.04,SE,135,1.3,3.4,88,0.00,,,0.00,WUHU216HW,2013-02-06 13:10:00,
2013-02-06 05:15:00,44.5,41.1,30.03,SW,225,2.9,5.4,88,0.00,,,0.00,WUHU216HW,2013-02-06 13:15:00,
2013-02-06 05:20:00,44.3,41.0,30.04,SE,135,4.0,5.4,88,0.00,,,0.00,WUHU216HW,2013-02-06 13:20:00,
2013-02-06 05:25:00,44.3,41.0,30.04,SSW,203,3.4,4.7,88,0.00,,,0.00,WUHU216HW,2013-02-06 13:25:00,
2013-02-06 05:30:00,44.3,41.0,30.04,SW,225,2.5,4.0,88,0.00,,,0.00,WUHU216HW,2013-02-06 13:30:00,
2013-02-06 05:35:00,44.3,41.0,30.04,SE,135,1.8,7.6,88,0.00,,,0.00,WUHU216HW,2013-02-06 13:35:00,
2013-02-06 05:40:00,44.3,41.0,30.04,SSE,158,3.4,7.6,88,0.00,,,0.00,WUHU216HW,2013-02-06 13:40:00,
2013-02-06 05:45:00,44.3,41.3,30.04,ESE,113,3.1,4.0,89,0.00,,,0.00,WUHU216HW,2013-02-06 13:45:00,
2013-02-06 05:50:00,44.3,41.3,30.04,SE,135,1.1,3.8,89,0.00,,,0.00,WUHU216HW,2013-02-06 13:50:00,
2013-02-06 05:55:00,44.3,41.3,30.04,ENE,68,1.6,3.8,89,0.00,,,0.00,WUHU216HW,2013-02-06 13:55:00,
2013-02-06 06:00:00,44.3,41.3,30.04,ESE,113,4.5,4.5,89,0.00,,,0.00,WUHU216HW,2013-02-06 14:00:00,
2013-02-06 06:05:00,44.5,41.1,30.04,South,180,2.7,4.5,88,0.00,,,0.00,WUHU216HW,2013-02-06 14:05:00,
2013-02-06 06:10:00,44.3,41.0,30.04,South,180,4.0,4.5,88,0.00,,,0.00,WUHU216HW,2013-02-06 14:10:00,
2013-02-06 06:15:00,44.3,41.0,30.04,SE,135,3.4,4.5,88,0.00,,,0.00,WUHU216HW,2013-02-06 14:15:00,
2013-02-06 06:20:00,44.3,41.0,30.04,ESE,113,3.4,4.5,88,0.00,,,0.00,WUHU216HW,2013-02-06 14:20:00,
2013-02-06 06:25:00,44.3,41.0,30.04,ESE,113,2.0,3.8,88,0.00,,,0.00,WUHU216HW,2013-02-06 14:25:00,
2013-02-06 06:30:00,44.3,41.0,30.05,ESE,113,3.4,6.7,88,0.00,,,0.00,WUHU216HW,2013-02-06 14:30:00,
2013-02-06 06:35:00,44.3,41.0,30.05,SSE,158,2.7,6.7,88,0.00,,,0.00,WUHU216HW,2013-02-06 14:35:00,
2013-02-06 06:40:00,44.3,41.0,30.05,South,180,4.5,4.7,88,0.00,,,0.00,WUHU216HW,2013-02-06 14:40:00,
2013-02-06 06:45:00,44.3,41.0,30.05,SE,135,2.2,4.7,88,0.00,,,0.00,WUHU216HW,2013-02-06 14:45:00,
2013-02-06 06:50:00,44.3,41.0,30.05,East,90,3.8,4.5,88,0.00,,,0.00,WUHU216HW,2013-02-06 14:50:00,
2013-02-06 06:55:00,44.3,41.0,30.05,ENE,68,4.0,5.6,88,0.00,,,0.00,WUHU216HW,2013-02-06 14:55:00,
2013-02-06 07:00:00,44.3,41.0,30.05,ESE,113,5.1,5.6,88,0.00,,,0.00,WUHU216HW,2013-02-06 15:00:00,
2013-02-06 07:05:00,44.3,41.3,30.05,SE,135,3.1,5.1,89,0.00,,,0.00,WUHU216HW,2013-02-06 15:05:00,
2013-02-06 07:10:00,44.3,41.3,30.05,ESE,113,0.9,6.3,89,0.00,,,0.00,WUHU216HW,2013-02-06 15:10:00,
2013-02-06 07:15:00,44.3,41.3,30.06,ESE,113,2.5,6.3,89,0.00,,,0.00,WUHU216HW,2013-02-06 15:15:00,
2013-02-06 07:20:00,44.3,41.0,30.06,SSW,203,2.9,10.3,88,0.00,,,0.00,WUHU216HW,2013-02-06 15:20:00,
2013-02-06 07:25:00,44.1,40.8,30.06,ENE,68,4.0,10.3,88,0.00,,,0.00,WUHU216HW,2013-02-06 15:25:00,
2013-02-06 07:30:00,44.1,40.8,30.06,ESE,113,3.4,6.0,88,0.00,,,0.00,WUHU216HW,2013-02-06 15:30:00,
2013-02-06 07:35:00,43.9,40.6,30.07,SE,135,4.0,6.0,88,0.00,,,0.00,WUHU216HW,2013-02-06 15:35:00,
2013-02-06 07:40:00,43.9,41.0,30.07,ESE,113,2.5,5.6,89,0.00,,,0.00,WUHU216HW,2013-02-06 15:40:00,
2013-02-06 07:45:00,43.9,41.0,30.07,SE,135,2.0,5.6,89,0.00,,,0.00,WUHU216HW,2013-02-06 15:45:00,
2013-02-06 07:50:00,43.9,41.0,30.07,ESE,113,2.9,4.0,89,0.00,,,0.00,WUHU216HW,2013-02-06 15:50:00,
2013-02-06 07:55:00,44.1,40.8,30.07,SE,135,1.6,4.5,88,0.00,,,0.00,WUHU216HW,2013-02-06 15:55:00,
2013-02-06 08:00:00,44.1,41.1,30.07,SSE,158,5.4,5.4,89,0.00,,,0.00,WUHU216HW,2013-02-06 16:00:00,
2013-02-06 08:05:00,44.1,41.1,30.07,SE,135,2.5,5.4,89,0.00,,,0.00,WUHU216HW,2013-02-06 16:05:00,
2013-02-06 08:10:00,44.1,41.1,30.07,ESE,113,1.6,5.4,89,0.00,,,0.00,WUHU216HW,2013-02-06 16:10:00,
2013-02-06 08:15:00,44.1,41.1,30.07,SSE,158,0.7,5.4,89,0.00,,,0.00,WUHU216HW,2013-02-06 16:15:00,
2013-02-06 08:20:00,44.3,41.0,30.07,ENE,68,1.6,4.0,88,0.00,,,0.00,WUHU216HW,2013-02-06 16:20:00,
2013-02-06 08:25:00,44.3,41.0,30.07,ESE,113,4.7,4.7,88,0.00,,,0.00,WUHU216HW,2013-02-06 16:25:00,
2013-02-06 08:30:00,44.5,41.1,30.07,NNE,23,2.5,4.7,88,0.00,,,0.00,WUHU216HW,2013-02-06 16:30:00,
2013-02-06 08:35:00,44.6,41.3,30.07,SE,135,2.9,4.7,88,0.00,,,0.00,WUHU216HW,2013-02-06 16:35:00,
2013-02-06 08:40:00,44.6,41.3,30.07,South,180,3.1,4.3,88,0.00,,,0.00,WUHU216HW,2013-02-06 16:40:00,
2013-02-06 08:45:00,44.8,41.2,30.07,SSE,158,2.5,4.3,87,0.00,,,0.00,WUHU216HW,2013-02-06 16:45:00,
2013-02-06 08:50:00,45.0,41.4,30.07,SSE,158,3.4,4.5,87,0.00,,,0.00,WUHU216HW,2013-02-06 16:50:00,
2013-02-06 08:55:00,45.0,41.4,30.07,SSE,158,2.0,6.3,87,0.00,,,0.00,WUHU216HW,2013-02-06 16:55:00,
2013-02-06 09:00:00,45.0,41.0,30.07,South,180,1.8,6.3,86,0.00,,,0.00,WUHU216HW,2013-02-06 17:00:00,
2013-02-06 09:05:00,45.2,41.2,30.07,SE,135,3.6,4.0,86,0.00,,,0.00,WUHU216HW,2013-02-06 17:05:00,
2013-02-06 09:10:00,45.4,41.1,30.07,East,90,2.2,4.0,85,0.00,,,0.00,WUHU216HW,2013-02-06 17:10:00,
2013-02-06 09:15:00,45.5,41.3,30.07,SE,135,3.4,4.0,85,0.00,,,0.00,WUHU216HW,2013-02-06 17:15:00,
2013-02-06 09:20:00,45.7,41.5,30.07,SE,135,2.2,5.1,85,0.00,,,0.00,WUHU216HW,2013-02-06 17:20:00,
2013-02-06 09:25:00,45.7,41.5,30.07,East,90,5.1,5.1,85,0.00,,,0.00,WUHU216HW,2013-02-06 17:25:00,
2013-02-06 09:30:00,45.9,41.4,30.07,SE,135,2.9,5.1,84,0.00,,,0.00,WUHU216HW,2013-02-06 17:30:00,
2013-02-06 09:35:00,46.1,41.6,30.07,South,180,1.1,5.1,84,0.00,,,0.00,WUHU216HW,2013-02-06 17:35:00,
2013-02-06 09:40:00,46.1,41.2,30.07,SSW,203,1.8,4.7,83,0.00,,,0.00,WUHU216HW,2013-02-06 17:40:00,
2013-02-06 09:45:00,46.3,41.4,30.06,SE,135,1.8,4.7,83,0.00,,,0.00,WUHU216HW,2013-02-06 17:45:00,
2013-02-06 09:50:00,46.4,41.6,30.06,ESE,113,1.3,3.4,83,0.00,,,0.00,WUHU216HW,2013-02-06 17:50:00,
2013-02-06 09:55:00,46.4,41.6,30.06,SSE,158,1.8,3.1,83,0.00,,,0.00,WUHU216HW,2013-02-06 17:55:00,
2013-02-06 10:00:00,46.8,42.0,30.06,SE,135,2.2,2.9,83,0.00,,,0.00,WUHU216HW,2013-02-06 18:00:00,
2013-02-06 10:05:00,47.0,41.8,30.06,ENE,68,0.9,3.1,82,0.00,,,0.00,WUHU216HW,2013-02-06 18:05:00,
2013-02-06 10:10:00,47.2,41.7,30.06,South,180,2.5,3.1,81,0.00,,,0.00,WUHU216HW,2013-02-06 18:10:00,
2013-02-06 10:15:00,47.3,41.8,30.06,SE,135,2.7,3.1,81,0.00,,,0.00,WUHU216HW,2013-02-06 18:15:00,
2013-02-06 10:20:00,47.2,41.3,30.06,South,180,3.4,5.6,80,0.00,,,0.00,WUHU216HW,2013-02-06 18:20:00,
2013-02-06 10:25:00,47.2,41.3,30.06,East,90,2.7,5.6,80,0.00,,,0.00,WUHU216HW,2013-02-06 18:25:00,
2013-02-06 10:30:00,47.3,41.5,30.06,SE,135,2.5,3.8,80,0.00,,,0.00,WUHU216HW,2013-02-06 18:30:00,
2013-02-06 10:35:00,47.5,41.7,30.06,South,180,4.5,4.5,80,0.00,,,0.00,WUHU216HW,2013-02-06 18:35:00,
2013-02-06 10:40:00,47.5,41.7,30.06,SW,225,2.5,4.5,80,0.00,,,0.00,WUHU216HW,2013-02-06 18:40:00,
2013-02-06 10:45:00,47.5,41.7,30.06,SSE,158,2.7,4.3,80,0.00,,,0.00,WUHU216HW,2013-02-06 18:45:00,
2013-02-06 10:50:00,47.7,41.9,30.06,SE,135,4.5,4.5,80,0.00,,,0.00,WUHU216HW,2013-02-06 18:50:00,
2013-02-06 10:55:00,47.9,41.9,30.06,East,90,2.5,4.5,80,0.00,,,0.00,WUHU216HW,2013-02-06 18:55:00,
2013-02-06 11:00:00,47.9,41.9,30.06,ESE,113,2.9,4.5,80,0.00,,,0.00,WUHU216HW,2013-02-06 19:00:00,
2013-02-06 11:05:00,47.9,41.9,30.06,ENE,68,2.7,2.9,80,0.00,,,0.00,WUHU216HW,2013-02-06 19:05:00,
2013-02-06 11:10:00,48.1,42.1,30.06,ESE,113,3.1,5.6,80,0.00,,,0.00,WUHU216HW,2013-02-06 19:10:00,
2013-02-06 11:15:00,48.1,41.8,30.06,ESE,113,3.8,5.6,79,0.00,,,0.00,WUHU216HW,2013-02-06 19:15:00,
2013-02-06 11:20:00,48.1,41.5,30.06,ESE,113,2.9,4.5,78,0.00,,,0.00,WUHU216HW,2013-02-06 19:20:00,
2013-02-06 11:25:00,48.1,41.5,30.06,SSE,158,2.0,3.8,78,0.00,,,0.00,WUHU216HW,2013-02-06 19:25:00,
2013-02-06 11:30:00,48.4,41.5,30.06,ESE,113,2.5,3.8,77,0.00,,,0.00,WUHU216HW,2013-02-06 19:30:00,
2013-02-06 11:35:00,48.6,41.7,30.06,ESE,113,2.0,3.4,77,0.00,,,0.00,WUHU216HW,2013-02-06 19:35:00,
2013-02-06 11:40:00,48.6,41.3,30.05,WSW,248,2.5,4.7,76,0.00,,,0.00,WUHU216HW,2013-02-06 19:40:00,
2013-02-06 11:45:00,48.6,41.7,30.05,ESE,113,3.6,4.7,77,0.00,,,0.00,WUHU216HW,2013-02-06 19:45:00,
2013-02-06 11:50:00,48.8,41.9,30.05,SE,135,1.1,3.6,77,0.00,,,0.00,WUHU216HW,2013-02-06 19:50:00,
2013-02-06 11:55:00,49.1,42.5,30.05,East,90,1.8,3.6,78,0.00,,,0.00,WUHU216HW,2013-02-06 19:55:00,
2013-02-06 12:00:00,49.1,41.9,30.04,SE,135,1.1,2.0,76,0.00,,,0.00,WUHU216HW,2013-02-06 20:00:00,
2013-02-06 12:05:00,49.0,42.0,30.04,ESE,113,1.8,1.8,77,0.00,,,0.00,WUHU216HW,2013-02-06 20:05:00,
2013-02-06 12:10:00,49.1,42.2,30.04,ENE,68,1.1,1.8,77,0.00,,,0.00,WUHU216HW,2013-02-06 20:10:00,
2013-02-06 12:15:00,49.5,42.2,30.04,ESE,113,1.1,1.8,76,0.00,,,0.00,WUHU216HW,2013-02-06 20:15:00,
2013-02-06 12:20:00,49.9,42.6,30.04,SE,135,1.3,1.8,76,0.00,,,0.00,WUHU216HW,2013-02-06 20:20:00,
2013-02-06 12:25:00,50.0,41.7,30.04,SSE,158,1.1,1.6,73,0.00,,,0.00,WUHU216HW,2013-02-06 20:25:00,
2013-02-06 12:30:00,50.2,42.6,30.03,SE,135,0.7,1.6,75,0.00,,,0.00,WUHU216HW,2013-02-06 20:30:00,
2013-02-06 12:35:00,50.2,42.6,30.03,East,90,2.5,2.5,75,0.00,,,0.00,WUHU216HW,2013-02-06 20:35:00,
2013-02-06 12:40:00,50.0,42.0,30.03,ESE,113,1.3,2.5,74,0.00,,,0.00,WUHU216HW,2013-02-06 20:40:00,
2013-02-06 12:45:00,50.0,42.0,30.03,East,90,1.6,2.5,74,0.00,,,0.00,WUHU216HW,2013-02-06 20:45:00,
2013-02-06 12:50:00,50.0,41.7,30.02,SSE,158,1.3,2.5,73,0.00,,,0.00,WUHU216HW,2013-02-06 20:50:00,
2013-02-06 12:55:00,50.6,42.6,30.02,SE,135,0.9,2.5,74,0.00,,,0.00,WUHU216HW,2013-02-06 20:55:00,
2013-02-06 13:00:00,50.8,42.4,30.02,ESE,113,1.8,2.5,73,0.00,,,0.00,WUHU216HW,2013-02-06 21:00:00,
2013-02-06 13:05:00,50.8,42.1,30.02,ESE,113,1.8,3.4,72,0.00,,,0.00,WUHU216HW,2013-02-06 21:05:00,
2013-02-06 13:10:00,50.4,41.8,30.02,ESE,113,2.5,3.4,72,0.00,,,0.00,WUHU216HW,2013-02-06 21:10:00,
2013-02-06 13:15:00,50.6,42.0,30.02,ESE,113,1.8,2.5,72,0.00,,,0.00,WUHU216HW,2013-02-06 21:15:00,
2013-02-06 13:20:00,50.4,41.0,30.02,SE,135,1.6,4.5,70,0.00,,,0.00,WUHU216HW,2013-02-06 21:20:00,
2013-02-06 13:25:00,50.4,41.0,30.01,SSW,203,3.6,4.5,70,0.00,,,0.00,WUHU216HW,2013-02-06 21:25:00,
2013-02-06 13:30:00,50.4,41.4,30.01,ESE,113,1.3,4.0,71,0.00,,,0.00,WUHU216HW,2013-02-06 21:30:00,
2013-02-06 13:35:00,50.4,41.0,30.01,SSE,158,2.5,4.0,70,0.00,,,0.00,WUHU216HW,2013-02-06 21:35:00,
2013-02-06 13:40:00,50.4,40.7,30.01,SE,135,2.5,6.3,69,0.00,,,0.00,WUHU216HW,2013-02-06 21:40:00,
2013-02-06 13:45:00,50.6,40.9,30.01,SE,135,2.9,6.3,69,0.00,,,0.00,WUHU216HW,2013-02-06 21:45:00,
2013-02-06 13:50:00,50.8,41.8,30.00,ESE,113,1.8,4.9,71,0.00,,,0.00,WUHU216HW,2013-02-06 21:50:00,
2013-02-06 13:55:00,51.5,41.3,30.00,ESE,113,4.0,4.0,68,0.00,,,0.00,WUHU216HW,2013-02-06 21:55:00,
2013-02-06 14:00:00,51.8,41.7,29.99,SSW,203,2.9,4.0,68,0.00,,,0.00,WUHU216HW,2013-02-06 22:00:00,
2013-02-06 14:05:00,52.0,41.9,29.99,SE,135,1.6,4.0,68,0.00,,,0.00,WUHU216HW,2013-02-06 22:05:00,
2013-02-06 14:10:00,52.6,42.0,29.99,SSW,203,2.0,4.0,67,0.00,,,0.00,WUHU216HW,2013-02-06 22:10:00,
2013-02-06 14:15:00,52.6,42.0,29.99,South,180,3.6,4.0,67,0.00,,,0.00,WUHU216HW,2013-02-06 22:15:00,
2013-02-06 14:20:00,52.2,41.9,29.99,SSW,203,1.6,3.6,68,0.00,,,0.00,WUHU216HW,2013-02-06 22:20:00,
2013-02-06 14:25:00,51.8,41.7,29.99,SSW,203,4.0,4.0,68,0.00,,,0.00,WUHU216HW,2013-02-06 22:25:00,
2013-02-06 14:31:00,51.1,41.0,29.99,SE,135,2.5,9.4,68,0.00,,,0.00,WUHU216HW,2013-02-06 22:31:00,
2013-02-06 14:36:00,50.4,41.0,29.99,SSE,158,4.5,9.4,70,0.00,,,0.00,WUHU216HW,2013-02-06 22:36:00,
2013-02-06 14:41:00,50.0,41.4,30.00,South,180,9.2,10.5,72,0.00,,,0.00,WUHU216HW,2013-02-06 22:41:00,
2013-02-06 14:46:00,49.5,42.8,29.99,SSE,158,11.9,13.4,78,0.00,,,0.00,WUHU216HW,2013-02-06 22:46:00,
2013-02-06 14:51:00,49.0,42.7,29.99,SSE,158,7.6,13.4,79,0.00,,,0.00,WUHU216HW,2013-02-06 22:51:00,
2013-02-06 14:56:00,48.8,42.5,29.99,SE,135,3.4,11.9,79,0.00,,,0.00,WUHU216HW,2013-02-06 22:56:00,
2013-02-06 15:01:00,48.8,42.8,29.99,ESE,113,1.3,7.6,80,0.00,,,0.00,WUHU216HW,2013-02-06 23:01:00,
2013-02-06 15:06:00,48.8,42.5,29.99,SE,135,2.5,3.4,79,0.00,,,0.00,WUHU216HW,2013-02-06 23:06:00,
2013-02-06 15:11:00,49.0,42.7,29.99,East,90,1.8,2.5,79,0.00,,,0.00,WUHU216HW,2013-02-06 23:11:00,
2013-02-06 15:16:00,49.0,42.7,29.99,SE,135,1.1,2.5,79,0.00,,,0.00,WUHU216HW,2013-02-06 23:16:00,
2013-02-06 15:21:00,49.0,42.3,29.99,East,90,1.1,3.4,78,0.00,,,0.00,WUHU216HW,2013-02-06 23:21:00,
2013-02-06 15:26:00,49.0,42.3,29.99,ESE,113,3.1,3.4,78,0.00,,,0.00,WUHU216HW,2013-02-06 23:26:00,
2013-02-06 15:31:00,49.0,42.3,29.99,ESE,113,2.7,3.1,78,0.00,,,0.00,WUHU216HW,2013-02-06 23:31:00,
2013-02-06 15:36:00,49.0,42.3,29.98,ESE,113,1.8,3.1,78,0.02,,,0.02,WUHU216HW,2013-02-06 23:36:00,
2013-02-06 15:41:00,48.8,42.5,29.99,SSE,158,3.1,3.1,79,0.02,,,0.02,WUHU216HW,2013-02-06 23:41:00,
2013-02-06 15:46:00,48.4,42.5,29.99,SE,135,1.8,3.4,80,0.02,,,0.02,WUHU216HW,2013-02-06 23:46:00,
2013-02-06 15:51:00,48.1,42.1,29.98,SE,135,1.1,6.3,80,0.02,,,0.02,WUHU216HW,2013-02-06 23:51:00,
2013-02-06 15:56:00,47.7,41.9,29.98,East,90,1.3,6.3,80,0.02,,,0.02,WUHU216HW,2013-02-06 23:56:00,
2013-02-06 16:01:00,47.9,41.9,29.98,SE,135,1.6,3.6,80,0.02,,,0.02,WUHU216HW,2013-02-07 00:01:00,
2013-02-06 16:06:00,47.5,41.7,29.98,SSE,158,2.5,3.1,80,0.02,,,0.02,WUHU216HW,2013-02-07 00:06:00,
2013-02-06 16:11:00,47.5,41.7,29.97,SE,135,0.9,2.7,80,0.02,,,0.02,WUHU216HW,2013-02-07 00:11:00,
2013-02-06 16:16:00,47.3,41.8,29.97,SE,135,0.9,2.5,81,0.02,,,0.02,WUHU216HW,2013-02-07 00:16:00,
2013-02-06 16:21:00,47.2,41.7,29.97,SE,135,0.7,2.2,81,0.02,,,0.02,WUHU216HW,2013-02-07 00:21:00,
2013-02-06 16:26:00,47.2,41.7,29.97,SE,135,1.1,2.2,81,0.02,,,0.02,WUHU216HW,2013-02-07 00:26:00,
2013-02-06 16:31:00,47.2,41.7,29.97,SSE,158,1.3,2.0,81,0.02,,,0.02,WUHU216HW,2013-02-07 00:31:00,
2013-02-06 16:36:00,47.2,41.7,29.97,ESE,113,0.0,2.0,81,0.00,,,0.02,WUHU216HW,2013-02-07 00:36:00,
2013-02-06 16:41:00,47.0,41.8,29.97,ESE,113,0.0,1.3,82,0.00,,,0.02,WUHU216HW,2013-02-07 00:41:00,
2013-02-06 16:46:00,46.6,41.5,29.97,East,90,0.9,0.9,82,0.00,,,0.02,WUHU216HW,2013-02-07 00:46:00,
2013-02-06 16:51:00,46.3,41.4,29.97,East,90,0.4,1.1,83,0.00,,,0.02,WUHU216HW,2013-02-07 00:51:00,
2013-02-06 16:56:00,46.1,41.2,29.97,East,90,0.7,1.1,83,0.00,,,0.02,WUHU216HW,2013-02-07 00:56:00,
2013-02-06 17:01:00,45.9,41.4,29.97,South,180,1.8,1.8,84,0.00,,,0.02,WUHU216HW,2013-02-07 01:01:00,
2013-02-06 17:06:00,45.7,41.5,29.97,ENE,68,0.7,1.8,85,0.02,,,0.04,WUHU216HW,2013-02-07 01:06:00,
2013-02-06 17:11:00,45.4,41.1,29.97,East,90,0.4,1.8,85,0.04,,,0.06,WUHU216HW,2013-02-07 01:11:00,
2013-02-06 17:16:00,45.2,41.2,29.96,ESE,113,0.7,3.4,86,0.04,,,0.06,WUHU216HW,2013-02-07 01:16:00,
2013-02-06 17:21:00,45.2,41.2,29.96,East,90,0.4,3.4,86,0.04,,,0.06,WUHU216HW,2013-02-07 01:21:00,
2013-02-06 17:26:00,45.0,41.7,29.96,ESE,113,3.4,4.3,88,0.05,,,0.07,WUHU216HW,2013-02-07 01:26:00,
2013-02-06 17:31:00,45.0,41.7,29.96,ESE,113,1.6,4.3,88,0.05,,,0.07,WUHU216HW,2013-02-07 01:31:00,
2013-02-06 17:36:00,44.8,41.5,29.96,ESE,113,1.1,3.4,88,0.05,,,0.07,WUHU216HW,2013-02-07 01:36:00,
2013-02-06 17:41:00,44.6,41.3,29.95,East,90,2.2,2.9,88,0.05,,,0.07,WUHU216HW,2013-02-07 01:41:00,
2013-02-06 17:46:00,44.5,41.5,29.95,SE,135,2.5,3.4,89,0.05,,,0.07,WUHU216HW,2013-02-07 01:46:00,
2013-02-06 17:51:00,44.5,41.5,29.95,SE,135,1.1,3.4,89,0.05,,,0.07,WUHU216HW,2013-02-07 01:51:00,
2013-02-06 17:56:00,44.3,41.0,29.94,ESE,113,2.0,4.9,88,0.05,,,0.07,WUHU216HW,2013-02-07 01:56:00,
2013-02-06 18:01:00,44.3,41.0,29.94,South,180,1.3,4.9,88,0.03,,,0.07,WUHU216HW,2013-02-07 02:01:00,
2013-02-06 18:06:00,44.3,41.3,29.93,East,90,0.9,4.0,89,0.03,,,0.07,WUHU216HW,2013-02-07 02:06:00,
2013-02-06 18:11:00,44.3,41.3,29.93,NE,45,3.4,4.0,89,0.01,,,0.07,WUHU216HW,2013-02-07 02:11:00,
2013-02-06 18:16:00,44.3,41.3,29.93,SE,135,1.8,5.4,89,0.01,,,0.07,WUHU216HW,2013-02-07 02:16:00,
2013-02-06 18:21:00,44.3,41.3,29.93,ENE,68,2.2,5.4,89,0.03,,,0.09,WUHU216HW,2013-02-07 02:21:00,
2013-02-06 18:26:00,44.3,41.3,29.93,North,0,1.8,3.4,89,0.02,,,0.09,WUHU216HW,2013-02-07 02:26:00,
2013-02-06 18:31:00,44.1,41.1,29.93,NE,45,3.1,3.1,89,0.02,,,0.09,WUHU216HW,2013-02-07 02:31:00,
2013-02-06 18:36:00,44.1,41.4,29.93,ENE,68,2.5,4.0,90,0.02,,,0.09,WUHU216HW,2013-02-07 02:36:00,
2013-02-06 18:41:00,44.1,41.4,29.93,SE,135,6.3,6.3,90,0.02,,,0.09,WUHU216HW,2013-02-07 02:41:00,
2013-02-06 18:46:00,44.1,41.4,29.93,SE,135,1.6,6.3,90,0.04,,,0.11,WUHU216HW,2013-02-07 02:46:00,
2013-02-06 18:51:00,44.3,41.6,29.93,East,90,1.1,6.3,90,0.04,,,0.11,WUHU216HW,2013-02-07 02:51:00,
2013-02-06 18:56:00,44.1,41.4,29.92,NNE,23,1.8,2.5,90,0.04,,,0.11,WUHU216HW,2013-02-07 02:56:00,
2013-02-06 19:01:00,44.1,41.4,29.92,East,90,1.3,2.5,90,0.04,,,0.11,WUHU216HW,2013-02-07 03:01:00,
2013-02-06 19:06:00,43.9,41.0,29.91,NE,45,2.2,2.5,89,0.04,,,0.11,WUHU216HW,2013-02-07 03:06:00,
2013-02-06 19:11:00,43.7,41.0,29.91,SE,135,1.1,2.9,90,0.05,,,0.12,WUHU216HW,2013-02-07 03:11:00,
2013-02-06 19:16:00,43.7,41.0,29.91,ENE,68,1.8,2.9,90,0.05,,,0.12,WUHU216HW,2013-02-07 03:16:00,
2013-02-06 19:21:00,43.7,41.0,29.91,East,90,1.3,2.5,90,0.03,,,0.12,WUHU216HW,2013-02-07 03:21:00,
2013-02-06 19:26:00,43.6,40.9,29.90,ENE,68,1.1,2.0,90,0.03,,,0.12,WUHU216HW,2013-02-07 03:26:00,
2013-02-06 19:31:00,43.6,40.9,29.90,NNW,338,1.1,2.0,90,0.03,,,0.12,WUHU216HW,2013-02-07 03:31:00,
2013-02-06 19:36:00,43.6,40.9,29.89,ESE,113,0.0,3.4,90,0.03,,,0.12,WUHU216HW,2013-02-07 03:36:00,
2013-02-06 19:41:00,43.6,41.1,29.89,SW,225,0.0,3.4,91,0.03,,,0.12,WUHU216HW,2013-02-07 03:41:00,
2013-02-06 19:46:00,43.4,40.7,29.89,South,180,1.8,2.5,90,0.01,,,0.12,WUHU216HW,2013-02-07 03:46:00,
2013-02-06 19:51:00,43.4,40.7,29.88,SE,135,0.9,3.8,90,0.01,,,0.12,WUHU216HW,2013-02-07 03:51:00,
2013-02-06 19:56:00,43.4,41.0,29.88,SE,135,1.8,3.8,91,0.01,,,0.12,WUHU216HW,2013-02-07 03:56:00,
2013-02-06 20:01:00,43.4,41.0,29.87,SSW,203,0.2,2.2,91,0.01,,,0.12,WUHU216HW,2013-02-07 04:01:00,
2013-02-06 20:06:00,43.6,41.1,29.87,SSW,203,1.8,2.5,91,0.01,,,0.12,WUHU216HW,2013-02-07 04:06:00,
2013-02-06 20:11:00,43.6,40.9,29.87,North,0,1.8,3.1,90,0.00,,,0.12,WUHU216HW,2013-02-07 04:11:00,
2013-02-06 20:16:00,43.6,40.9,29.87,East,90,0.7,3.1,90,0.00,,,0.12,WUHU216HW,2013-02-07 04:16:00,
2013-02-06 20:21:00,43.6,40.9,29.87,SSW,203,0.0,1.8,90,0.00,,,0.12,WUHU216HW,2013-02-07 04:21:00,
2013-02-06 20:26:00,43.6,40.9,29.87,South,180,6.7,6.7,90,0.00,,,0.12,WUHU216HW,2013-02-07 04:26:00,
2013-02-06 20:31:00,44.1,41.1,29.87,WSW,248,3.6,6.7,89,0.00,,,0.12,WUHU216HW,2013-02-07 04:31:00,
2013-02-06 20:36:00,44.5,41.1,29.87,East,90,1.1,6.7,88,0.00,,,0.12,WUHU216HW,2013-02-07 04:36:00,
2013-02-06 20:41:00,44.5,41.1,29.87,ENE,68,0.9,4.0,88,0.00,,,0.12,WUHU216HW,2013-02-07 04:41:00,
2013-02-06 20:46:00,44.3,41.0,29.87,SE,135,0.4,4.0,88,0.00,,,0.12,WUHU216HW,2013-02-07 04:46:00,
2013-02-06 20:51:00,44.1,40.8,29.87,South,180,0.9,2.2,88,0.00,,,0.12,WUHU216HW,2013-02-07 04:51:00,
2013-02-06 20:56:00,43.7,40.4,29.86,South,180,2.0,2.0,88,0.00,,,0.12,WUHU216HW,2013-02-07 04:56:00,
2013-02-06 21:01:00,43.7,40.4,29.86,ENE,68,0.4,4.0,88,0.00,,,0.12,WUHU216HW,2013-02-07 05:01:00,
2013-02-06 21:06:00,43.7,40.4,29.86,ENE,68,0.4,4.0,88,0.00,,,0.12,WUHU216HW,2013-02-07 05:06:00,
2013-02-06 21:11:00,43.6,40.6,29.85,South,180,3.6,3.6,89,0.00,,,0.12,WUHU216HW,2013-02-07 05:11:00,
2013-02-06 21:16:00,43.6,40.6,29.85,NE,45,1.3,3.6,89,0.00,,,0.12,WUHU216HW,2013-02-07 05:16:00,
2013-02-06 21:21:00,43.4,40.4,29.85,NE,45,0.9,3.6,89,0.00,,,0.12,WUHU216HW,2013-02-07 05:21:00,
2013-02-06 21:26:00,43.2,40.2,29.85,East,90,0.4,1.6,89,0.00,,,0.12,WUHU216HW,2013-02-07 05:26:00,
2013-02-06 21:31:00,43.0,40.1,29.84,ENE,68,0.4,0.9,89,0.00,,,0.12,WUHU216HW,2013-02-07 05:31:00,
2013-02-06 21:36:00,43.0,40.1,29.84,East,90,0.0,0.9,89,0.00,,,0.12,WUHU216HW,2013-02-07 05:36:00,
2013-02-06 21:41:00,42.8,39.9,29.84,East,90,0.4,0.7,89,0.00,,,0.12,WUHU216HW,2013-02-07 05:41:00,
2013-02-06 21:46:00,42.8,40.1,29.83,NE,45,0.0,0.7,90,0.00,,,0.12,WUHU216HW,2013-02-07 05:46:00,
2013-02-06 23:00:00,42.8,40.7,29.83,ESE,113,3.4,3.4,92,0.00,,,0.12,WUHU216HW,2013-02-07 07:00:00,
2013-02-06 23:10:00,42.8,40.4,29.82,ESE,113,1.1,3.4,91,0.00,,,0.12,WUHU216HW,2013-02-07 07:10:00,
2013-02-06 23:15:00,43.0,40.9,29.81,ENE,68,3.1,4.0,92,0.00,,,0.12,WUHU216HW,2013-02-07 07:15:00,
2013-02-06 23:20:00,43.2,40.8,29.81,SSW,203,0.9,4.0,91,0.00,,,0.12,WUHU216HW,2013-02-07 07:20:00,
2013-02-06 23:25:00,43.4,41.0,29.82,South,180,0.0,1.8,91,0.00,,,0.12,WUHU216HW,2013-02-07 07:25:00,
2013-02-06 23:30:00,43.6,41.1,29.82,ESE,113,0.0,1.8,91,0.00,,,0.12,WUHU216HW,2013-02-07 07:30:00,
2013-02-06 23:35:00,43.6,41.1,29.83,ENE,68,0.9,1.3,91,0.00,,,0.12,WUHU216HW,2013-02-07 07:35:00,
2013-02-06 23:40:00,43.6,41.1,29.82,NE,45,4.7,4.7,91,0.00,,,0.12,WUHU216HW,2013-02-07 07:40:00,
2013-02-06 23:45:00,43.6,41.1,29.82,ENE,68,1.6,4.7,91,0.00,,,0.12,WUHU216HW,2013-02-07 07:45:00,
2013-02-06 23:50:00,43.6,41.1,29.83,ENE,68,1.6,2.5,91,0.00,,,0.12,WUHU216HW,2013-02-07 07:50:00,
2013-02-06 23:55:00,43.6,41.1,29.83,ENE,68,2.0,2.5,91,0.00,,,0.12,WUHU216HW,2013-02-07 07:55:00,